PDT,Max TemperatureF,Mean TemperatureF,Min TemperatureF,Max Dew PointF,MeanDew PointF,Min DewpointF,Max Humidity, Mean Humidity, Min Humidity, Max Sea Level PressureIn, Mean Sea Level PressureIn, Min Sea Level PressureIn, Max VisibilityMiles, Mean VisibilityMiles, Min VisibilityMiles, Max Wind SpeedMPH, Mean Wind SpeedMPH, Max Gust SpeedMPH,PrecipitationIn, CloudCover, Events, WindDirDegrees
2013-9-1,105,93,82,70,64,55,63,40,20,29.87,29.81,29.74,10,10,10,14,8,,0.00,0,,207
2013-9-2,107,93,80,67,62,58,55,38,21,29.86,29.79,29.74,10,10,10,24,6,38,0.00,0,Rain,205
2013-9-3,106,92,80,68,63,59,64,39,23,29.88,29.81,29.74,10,10,10,7,4,,0.00,2,,219
2013-9-4,96,88,80,76,70,62,79,61,32,29.95,29.86,29.80,10,9,2,22,8,24,0.00,4,Rain-Thunderstorm,201
2013-9-5,109,92,77,71,63,55,76,43,18,29.87,29.81,29.76,10,10,10,18,5,,0.00,2,,251
2013-9-6,109,95,82,67,60,55,53,33,17,29.87,29.79,29.70,10,10,10,25,7,,0.00,2,Thunderstorm,227
2013-9-7,99,88,77,74,69,64,90,62,36,29.93,29.86,29.79,10,8,2,30,9,38,0.00,4,Rain,24
2013-9-8,102,88,75,74,68,61,94,57,28,29.83,29.77,29.69,10,10,8,9,4,,0.00,0,,188
2013-9-9,99,87,75,73,65,58,84,54,26,29.78,29.70,29.59,10,9,2,20,8,28,0.00,4,Rain-Thunderstorm,91
2013-9-10,97,84,73,70,64,55,87,54,30,29.86,29.81,29.77,10,10,10,12,6,,0.00,2,,131
2013-9-11,100,86,72,72,60,48,73,44,18,29.92,29.86,29.79,10,10,10,9,3,,0.00,0,,146
2013-9-12,102,88,73,58,49,43,57,29,14,29.88,29.80,29.73,10,10,10,9,5,,0.00,0,,231
2013-9-13,106,89,73,53,46,39,37,24,12,29.75,29.68,29.59,10,10,10,10,7,,0.00,0,,261
2013-9-14,108,91,75,55,47,39,37,23,10,29.67,29.62,29.57,10,10,10,10,6,,0.00,0,,243
2013-9-15,109,92,77,55,49,41,39,24,10,29.72,29.67,29.62,10,10,10,10,6,,0.00,0,,234
2013-9-16,109,94,78,51,45,39,35,20,9,29.75,29.69,29.63,10,10,10,14,7,,0.00,0,,283
2013-9-17,109,94,78,45,39,29,31,17,6,29.70,29.64,29.57,10,10,10,22,9,31,0.00,0,,262
2013-9-18,102,86,70,45,29,9,31,16,4,29.70,29.65,29.60,10,10,10,16,6,,0.00,0,,266
2013-9-19,102,86,69,48,41,36,47,24,10,29.76,29.71,29.66,10,10,10,9,5,,0.00,0,,239
2013-9-20,102,86,70,54,46,39,46,26,12,29.78,29.72,29.67,10,10,10,18,6,,0.00,0,,226
2013-9-21,102,84,69,62,51,29,68,37,8,29.79,29.72,29.65,10,10,10,24,8,32,0.00,0,,267
2013-9-22,90,80,69,52,42,28,49,32,11,29.81,29.74,29.64,10,10,5,30,19,40,0.00,1,,284
2013-9-23,98,80,64,47,39,31,52,28,11,29.89,29.84,29.80,10,10,10,8,4,,0.00,0,,258
2013-9-24,99,82,66,44,38,32,33,22,10,29.92,29.83,29.75,10,10,10,14,6,,0.00,0,,220
2013-9-25,98,85,73,42,34,21,31,18,10,29.79,29.69,29.62,10,10,9,32,16,40,0.00,0,,234
2013-9-26,84,76,68,46,37,24,43,26,15,29.83,29.72,29.64,10,10,4,33,24,40,0.00,0,,266
2013-9-27,87,72,57,45,32,20,55,27,9,30.01,29.94,29.84,10,10,10,17,9,22,0.00,0,,320
2013-9-28,91,73,55,33,28,23,32,20,8,30.07,30.02,29.97,10,10,10,8,5,,0.00,0,,273
2013-9-29,95,76,59,36,28,21,31,18,8,30.07,30.00,29.92,10,10,10,6,5,,0.00,0,,155
2013-9-30,97,79,62,40,33,28,35,21,10,29.95,29.88,29.79,10,10,10,13,3,,0.00,0,,199